Location: Catstown
(52.4386°N, 7.2633°W)
Time: 22:09:05
(UTC+00:00)

NOSS 3-4 (C) - Pass Details

Date: 18 September 2020
Orbit: 886 x 1326 km, 63.4° (Epoch: 27 October)

Event Time Altitude Azimuth Distance (km) Brightness Sun altitude
Exits shadow 22:41:39 44° 41° (NE) 1,322 4.2 -32.1°
Drops below altitude 10° 22:45:59 10° 46° (NE) 2,804 6.0 -32.4°
Sets 22:48:43 0° 48° (NE) 3,822 6.8 -32.6°
